This is the latest recevied weather packets stored in our database for station/object KK7KRZ. If no packets are shown the sender has not sent any weather packets the latest 10 day(s).
| Time | Temp. | Humidity | Pressure | Rain* | Wind** | Luminosity | Snow |
|---|---|---|---|---|---|---|---|
| 1777941002 | 21.67° C | 67% | 1010.5 hPa | 0 mm | - | 34 W/m² | - |
| 1777940698 | 21.67° C | 67% | 1010.6 hPa | 0 mm | - | 35 W/m² | - |
| 1777940397 | 21.67° C | 67% | 1010.7 hPa | 0 mm | - | 47 W/m² | - |
| 1777940094 | 21.67° C | 68% | 1010.6 hPa | 0 mm | - | 46 W/m² | - |
| 1777939790 | 21.67° C | 66% | 1010.8 hPa | 0 mm | - | 40 W/m² | - |
| 1777939489 | 21.67° C | 65% | 1010.8 hPa | 0 mm | - | 38 W/m² | - |
| 1777939185 | 21.67° C | 68% | 1010.9 hPa | 0 mm | - | 39 W/m² | - |
| 1777938882 | 21.11° C | 68% | 1010.8 hPa | 0 mm | - | 39 W/m² | - |
| 1777938579 | 21.11° C | 68% | 1010.9 hPa | 0 mm | - | 39 W/m² | - |
| 1777938276 | 21.67° C | 65% | 1010.9 hPa | 0 mm | - | 40 W/m² | - |
| 1777937972 | 21.67° C | 65% | 1011 hPa | 0 mm | - | 40 W/m² | - |
| 1777937668 | 21.67° C | 68% | 1011 hPa | 0 mm | - | 42 W/m² | - |
| 1777937365 | 21.67° C | 67% | 1011.3 hPa | 0 mm | - | 42 W/m² | - |
| 1777937063 | 22.22° C | 66% | 1011.2 hPa | 0 mm | - | 45 W/m² | - |
| 1777936759 | 22.22° C | 66% | 1011.3 hPa | 0 mm | - | 45 W/m² | - |
| 1777936455 | 21.67° C | 66% | 1011.1 hPa | 0 mm | - | 48 W/m² | - |
| 1777936152 | 21.67° C | 64% | 1011.1 hPa | 0 mm | - | 510 W/m² | - |
| 1777935849 | 21.67° C | 64% | 1011.3 hPa | 0 mm | - | 510 W/m² | - |
| 1777935548 | 21.67° C | 64% | 1011.4 hPa | 0 mm | - | 510 W/m² | - |
| 1777935244 | 22.22° C | 64% | 1011.6 hPa | 0 mm | - | 534 W/m² | - |
| 1777934942 | 22.22° C | 64% | 1011.5 hPa | 0 mm | - | 559 W/m² | - |
| 1777934638 | 22.22° C | 65% | 1011.4 hPa | 0 mm | - | 562 W/m² | - |
| 1777934335 | 22.22° C | 60% | 1011.7 hPa | 0 mm | - | 581 W/m² | - |
| 1777934031 | 21.67° C | 63% | 1011.6 hPa | 0 mm | - | 603 W/m² | - |
| 1777933727 | 21.67° C | 63% | 1011.8 hPa | 0 mm | - | 593 W/m² | - |
* Rain latest hour (hover to see other rain measurements)
** Current wind speed in m/s (hover to see current wind gust speed)